Theta_e
319 319 319 319 320 314 308 310 309 310 312 315 314 314 313 313 313 314 314 314 313 313 312 313 312 307 314 314 310 312 314 317 327 318 320 322 322 329 338 336 338 344 344 349 351 354 351
318 318 318 319 319 319 309 308 310 309 310 313 315 314 313 313 313 314 314 314 312 311 311 312 311 312 315 308 313 324 328 317 323 316 316 321 324 331 336 336 342 340 351 356 355 355 353
318 318 318 318 318 319 317 308 309 310 309 311 313 314 314 313 313 313 313 312 312 313 313 312 311 316 316 309 313 322 325 320 323 315 316 319 325 333 335 332 340 351 358 359 356 356 356
318 317 317 317 317 318 319 313 308 310 309 310 312 314 314 312 311 310 311 310 311 313 313 309 313 316 311 309 323 320 316 315 314 315 315 315 325 332 335 330 344 356 357 365 360 357 355
318 317 316 316 316 317 318 320 308 310 309 309 311 312 313 310 310 310 311 312 309 311 311 312 315 316 311 314 318 318 316 316 316 314 313 315 321 329 325 331 349 346 359 359 364 356 356
320 318 317 316 316 317 317 319 311 309 310 308 311 312 313 311 309 310 316 314 317 315 315 315 317 319 319 319 319 318 317 315 315 314 316 319 324 331 325 326 344 353 343 349 357 359 357
320 320 317 316 316 316 317 320 312 308 310 309 310 312 313 313 312 310 317 318 318 320 317 317 315 319 321 321 318 318 315 315 315 316 322 323 333 338 332 326 326 329 327 340 357 356 359
320 319 317 316 316 316 317 319 308 309 310 309 310 312 313 313 313 312 310 314 317 317 320 318 318 317 317 318 321 319 318 317 314 317 322 327 336 329 324 323 324 325 327 359 359 357 358
318 318 316 316 317 317 317 309 308 310 310 309 310 312 312 313 312 312 311 313 315 315 319 317 319 320 319 320 322 322 320 318 317 324 326 333 330 321 323 323 325 325 327 353 356 359 357
317 317 316 316 317 317 315 307 308 310 309 309 310 311 312 312 311 313 314 315 315 314 319 319 319 321 320 321 323 321 321 322 322 326 325 331 322 322 323 324 324 328 323 337 357 354 354
315 316 318 317 318 319 314 307 309 311 309 309 311 312 312 312 311 313 313 314 315 312 322 322 319 318 319 323 323 323 322 322 324 323 324 326 323 324 325 325 324 327 325 330 344 352 351
316 316 318 318 319 320 314 308 310 310 309 310 311 312 312 312 312 314 315 314 312 319 324 322 318 320 322 321 322 321 323 321 320 323 323 323 321 322 324 323 323 340 337 344 348 350 344
315 315 317 318 319 320 314 308 310 309 309 311 313 312 312 312 314 315 314 314 322 324 321 323 322 320 322 320 322 324 324 323 323 325 326 324 324 323 322 324 327 345 341 351 354 353 345
315 314 316 317 318 320 313 308 310 308 309 311 314 312 312 312 312 311 315 324 325 325 324 322 318 319 322 320 320 321 324 324 320 322 323 323 321 323 323 325 325 338 336 335 340 347 343
314 316 316 317 317 319 311 308 310 308 310 313 315 313 312 310 311 314 321 325 324 324 323 323 320 322 323 322 322 323 322 324 322 322 325 326 326 324 323 322 327 334 336 332 339 340 346
315 315 315 316 316 319 309 309 309 309 311 315 315 313 312 313 311 316 323 321 324 320 323 320 323 321 324 324 324 324 324 322 320 319 319 324 326 324 325 324 324 332 330 330 336 345 343
313 313 313 314 315 319 308 309 309 309 312 317 312 318 314 315 315 322 323 320 321 319 322 321 321 322 322 324 324 325 324 322 320 320 320 322 326 327 325 328 329 328 331 330 332 335 338
313 313 313 315 316 318 308 309 309 310 317 317 311 321 314 316 321 315 319 317 314 317 318 320 320 321 322 322 323 324 324 323 322 320 321 320 326 328 328 324 321 323 327 330 334 337 339
312 312 313 314 316 318 308 309 309 311 317 314 318 318 313 315 323 322 317 317 313 315 314 319 320 320 320 321 324 323 323 321 321 318 320 321 324 325 327 325 322 324 322 322 326 338 343
311 312 312 313 317 318 308 309 309 311 317 314 318 321 317 314 311 316 319 315 315 314 315 317 318 318 321 323 321 323 322 320 317 322 322 322 323 327 323 327 323 324 322 322 324 334 338
311 311 312 313 315 319 308 310 310 312 317 315 317 320 315 320 318 314 315 314 316 315 316 316 318 318 320 323 323 323 321 319 317 319 318 321 327 324 323 322 321 322 323 334 327 327 335
311 311 311 312 314 318 309 310 310 312 315 317 322 322 317 319 317 314 312 316 315 315 318 318 317 315 319 320 320 323 321 321 320 320 320 318 326 324 326 324 325 322 323 330 335 336 338
310 312 312 311 313 318 309 309 311 312 316 318 317 316 318 313 313 316 315 315 316 317 316 316 316 317 317 315 314 314 317 316 315 320 322 323 325 326 326 324 326 326 324 325 336 341 342
311 311 311 312 312 316 311 308 310 311 313 316 317 318 317 318 317 315 313 313 314 314 318 314 314 316 314 311 311 311 314 315 315 314 316 323 325 324 323 326 329 325 325 330 335 340 341
310 310 311 311 311 313 312 308 310 311 313 316 317 317 318 319 317 318 316 315 315 315 315 316 315 312 309 313 315 317 317 318 318 314 316 319 323 323 324 322 324 324 323 324 325 325 334
309 310 312 311 311 313 313 307 310 310 313 316 318 316 316 321 319 316 318 316 318 316 317 316 316 313 311 314 317 318 317 317 318 318 314 316 320 322 322 321 321 323 322 323 326 327 336
310 310 312 312 311 312 313 307 309 310 314 317 318 317 314 320 317 316 319 318 314 316 318 316 317 319 312 315 316 319 323 322 329 319 319 319 320 319 321 321 320 321 324 323 327 327 334
310 310 311 311 310 311 313 307 308 310 314 317 318 316 316 319 318 316 316 317 316 316 319 316 318 319 319 321 319 321 326 325 325 321 323 320 321 321 318 320 318 322 325 324 328 328 332
311 311 311 311 310 311 312 307 308 310 314 318 319 317 316 319 319 315 316 315 314 314 316 316 319 320 320 321 321 323 326 324 323 328 318 325 320 322 320 320 321 321 324 326 326 329 333
Wind_Speed
18 18 18 19 20 19 19 18 16 16 15 14 14 13 11 10 9 9 9 8 8 8 7 8 6 2 1 3 5 4 6 22 25 18 15 9 14 5 6 4 5 4 2 8 7 11 10
18 19 18 18 19 19 19 19 19 17 17 16 15 14 12 10 9 8 8 8 8 7 6 4 2 4 2 4 2 5 12 24 22 10 9 14 9 4 5 3 6 3 4 7 2 13 10
21 19 19 18 17 19 18 19 19 19 17 18 16 15 13 11 9 8 8 7 7 7 5 2 7 2 3 4 5 4 18 13 21 9 8 6 6 3 3 5 1 9 10 10 11 12 6
23 23 21 20 19 19 20 18 19 19 17 18 18 15 13 10 7 5 4 3 4 4 2 3 6 1 4 0 4 13 15 12 13 8 7 2 3 1 1 1 3 4 5 7 6 9 9
25 25 24 22 20 19 19 18 18 18 18 18 19 17 14 10 7 5 3 2 1 2 5 7 2 1 1 2 2 11 15 12 11 2 3 2 2 1 3 6 5 2 4 4 8 4 10
22 24 26 24 22 21 19 18 17 18 17 17 19 19 14 11 7 5 4 4 10 8 6 3 1 3 2 4 6 8 12 19 5 4 5 4 2 4 3 6 8 7 5 3 5 9 13
21 22 24 23 22 22 20 18 17 19 18 16 17 18 17 13 6 0 6 4 2 3 4 4 1 2 2 4 12 4 9 12 7 4 5 4 6 12 10 4 5 7 6 5 4 9 9
22 22 23 22 22 22 21 18 19 19 17 15 16 17 17 14 11 5 4 3 1 2 5 6 7 6 7 2 5 9 13 5 13 13 5 6 11 6 4 6 6 4 5 4 6 5 2
24 23 22 23 23 22 21 20 21 20 18 16 17 17 19 15 10 3 5 6 4 3 3 2 4 3 3 9 6 11 12 7 15 12 11 12 4 7 8 6 7 4 4 6 3 6 3
23 23 22 23 23 22 20 22 22 21 19 17 18 19 19 14 1 2 4 2 6 5 1 2 2 3 6 4 5 7 14 4 4 13 8 8 5 10 7 6 5 8 7 7 10 7 3
24 23 20 22 22 23 21 23 23 22 20 19 22 21 19 10 4 3 2 5 1 4 2 3 3 5 5 3 14 6 7 2 8 9 6 5 10 9 7 6 6 1 3 10 7 3 3
24 24 22 21 21 23 22 24 25 23 21 22 24 24 16 5 5 5 4 4 3 2 3 2 2 4 7 4 3 5 7 3 2 6 3 5 1 3 3 3 10 9 10 9 6 2 4
24 24 23 23 23 23 23 25 26 25 22 23 25 17 12 6 1 4 5 2 2 1 2 3 3 2 7 3 5 8 8 5 3 7 10 7 7 3 3 6 7 4 11 4 3 4 3
23 24 24 24 25 23 23 26 28 26 26 30 21 13 8 8 2 7 1 1 1 1 2 1 2 5 4 3 4 3 7 6 3 3 4 8 7 8 7 10 7 15 12 7 13 6 6
24 24 24 24 26 23 24 28 30 30 31 34 18 5 3 3 12 2 1 0 0 1 1 1 3 4 2 2 2 2 2 7 5 7 2 5 4 3 6 4 10 7 9 4 3 1 5
24 24 24 24 24 23 25 28 29 30 34 27 9 3 4 5 11 2 1 1 2 2 2 0 3 2 2 2 2 2 2 3 4 1 2 6 3 2 3 4 2 7 6 7 3 8 7
24 25 24 23 23 24 25 28 29 32 36 12 2 2 10 11 1 2 1 1 2 2 1 3 3 4 4 2 2 2 1 2 2 3 3 3 2 4 3 2 3 4 5 2 3 3 9
24 25 25 24 23 24 25 28 29 34 31 6 1 3 5 3 1 1 2 1 4 2 4 5 4 4 3 3 3 2 3 1 2 1 2 2 1 1 3 3 2 1 1 4 7 7 1
24 25 26 25 22 23 24 27 29 33 22 4 2 2 5 3 1 1 2 2 6 6 6 5 5 5 3 2 3 2 1 2 0 1 2 4 1 2 4 4 3 3 3 1 1 1 8
23 24 24 26 22 22 22 26 28 32 16 3 1 3 2 2 1 2 1 2 3 4 4 5 4 1 2 4 5 2 3 3 2 3 5 2 2 3 6 2 1 0 4 2 5 6 6
23 23 23 24 23 19 20 23 26 30 15 4 3 2 2 2 2 2 1 1 3 3 4 7 4 5 2 2 2 3 3 2 3 1 2 1 1 1 5 5 4 5 6 3 6 2 8
23 23 23 22 22 18 18 21 24 26 14 4 1 1 1 2 1 3 3 2 4 3 3 5 6 8 7 4 3 2 3 3 1 2 2 1 3 1 4 2 3 2 6 4 5 3 6
23 22 22 21 21 16 15 18 21 23 12 4 1 1 1 2 2 1 1 1 4 2 4 5 1 1 6 5 3 3 1 2 2 1 2 0 4 3 3 4 4 6 6 9 6 4 5
24 20 20 20 19 16 13 14 17 19 19 4 3 0 1 3 3 2 3 4 4 3 4 3 4 2 3 3 3 2 5 4 3 6 1 4 4 1 1 1 8 4 1 4 5 3 3
22 19 19 19 18 16 11 11 13 16 17 4 4 1 1 4 2 6 8 6 4 5 4 3 4 3 4 3 0 2 2 4 3 6 5 2 4 3 3 4 4 4 2 4 3 6 4
21 18 17 18 17 15 9 9 11 13 15 2 7 2 1 4 4 0 4 3 2 2 1 2 2 4 1 3 2 1 3 1 2 2 2 5 5 3 2 3 5 3 3 8 1 5 1
21 17 16 16 15 14 8 7 8 11 11 6 5 5 2 4 3 1 3 3 2 2 2 1 4 3 3 1 1 2 2 1 2 3 2 1 3 2 3 3 3 0 8 5 5 2 4
20 16 14 15 12 11 8 5 6 8 11 6 3 8 3 3 4 4 2 3 2 2 1 1 2 2 1 1 1 2 2 1 1 1 1 3 4 3 2 2 5 6 2 3 4 3 6
18 15 14 13 11 9 7 4 4 6 8 4 2 7 11 5 4 4 8 8 4 1 2 1 1 1 2 3 1 2 2 2 1 2 0 2 1 1 3 1 2 4 2 5 6 6 1
Wind_Direction
7 3 2 359 359 358 1 359 355 350 346 343 341 336 327 317 309 298 292 291 290 296 299 303 302 130 98 200 254 340 131 155 155 155 156 158 162 154 165 186 170 224 163 185 174 174 153
8 7 3 0 356 356 357 2 356 350 349 345 342 340 334 324 310 300 296 292 288 290 299 297 266 121 80 219 273 308 180 165 160 146 154 160 176 187 134 156 202 181 160 134 180 169 141
10 5 2 2 356 354 355 358 357 352 350 350 347 341 339 333 323 313 307 300 296 294 289 265 146 149 146 264 328 118 151 169 165 162 166 206 181 216 129 153 86 136 133 105 122 140 107
8 8 7 2 358 354 351 355 356 354 351 352 352 348 341 337 329 321 313 316 298 276 250 138 133 165 245 350 99 134 132 135 150 156 179 193 194 131 256 59 106 144 150 156 164 150 141
8 7 6 2 359 355 352 351 354 355 353 352 354 354 349 346 345 1 13 10 20 151 136 134 108 245 215 135 185 172 138 136 173 165 107 187 261 224 168 168 146 99 159 140 148 167 155
3 5 4 1 359 356 354 351 354 355 353 354 356 356 354 355 6 18 70 84 101 99 120 143 246 256 231 144 149 166 152 140 128 152 129 136 182 194 161 195 188 161 145 152 129 163 170
3 360 0 358 359 356 353 351 354 355 354 352 353 351 351 350 6 17 108 121 190 186 217 235 116 300 310 81 126 179 157 120 116 168 166 155 200 200 181 181 124 122 118 131 122 158 159
1 359 358 359 358 356 354 354 355 353 351 347 346 345 342 341 336 300 192 226 213 18 299 230 238 268 266 265 117 145 173 137 149 170 155 159 213 198 164 150 146 134 127 99 106 139 144
1 360 2 2 360 358 355 356 354 351 348 344 343 340 339 338 337 130 204 231 209 340 271 282 195 204 170 172 143 168 187 138 159 155 184 183 182 157 185 170 175 181 175 159 113 150 160
359 358 4 2 1 358 356 357 354 350 348 344 338 336 334 340 22 297 253 201 230 249 308 65 198 148 141 187 116 152 190 161 156 160 151 182 132 163 176 197 202 208 203 155 145 178 158
358 359 2 2 -0 354 358 357 353 351 348 343 338 331 326 321 277 229 195 303 157 165 100 350 118 134 146 188 137 171 192 194 160 147 182 146 168 176 194 213 194 230 181 181 162 124 194
355 359 359 357 356 352 357 356 352 351 348 344 338 328 320 312 233 236 265 318 167 258 80 80 103 156 150 118 126 124 181 90 101 117 97 132 93 211 197 183 197 141 120 94 91 129 238
354 356 356 356 355 355 355 353 350 350 347 342 336 323 305 241 214 167 334 177 288 29 318 30 45 109 126 73 107 149 163 154 157 173 191 193 235 243 201 197 156 204 181 156 163 190 230
353 354 354 354 354 355 354 351 349 346 345 342 334 320 288 237 188 248 260 258 333 33 29 44 62 80 108 26 43 83 146 167 98 95 156 190 201 203 175 217 190 204 228 226 207 195 198
354 353 353 353 354 356 354 353 350 348 347 340 337 330 297 348 206 149 78 38 267 188 331 54 105 88 91 94 107 117 108 170 188 200 212 176 211 163 222 182 190 181 220 280 127 76 214
355 354 353 353 354 355 356 354 351 347 345 338 342 341 20 341 156 166 86 270 294 248 342 258 89 31 120 67 126 110 148 165 152 105 283 182 200 165 141 159 141 220 158 198 239 179 216
354 354 354 352 352 355 357 354 353 348 346 348 33 106 358 128 86 69 56 289 318 333 350 34 95 94 73 88 67 92 140 141 180 101 110 157 252 135 209 64 177 167 199 194 221 272 225
354 351 351 351 351 354 357 355 354 351 352 20 40 88 6 356 70 11 21 320 336 49 13 50 90 86 69 46 79 100 143 259 87 168 192 135 187 203 73 17 270 285 85 219 225 186 242
353 352 349 349 351 352 357 356 356 355 359 2 64 93 21 339 70 50 333 30 44 32 31 24 41 45 92 86 101 52 42 355 95 130 160 171 296 217 166 160 150 58 16 45 177 162 203
350 349 348 347 348 351 356 357 357 357 2 32 151 108 66 61 23 110 109 36 94 47 61 49 35 47 66 46 55 94 48 46 5 78 96 120 105 278 273 97 94 29 6 328 244 217 193
347 345 345 345 345 350 355 358 358 360 9 33 10 71 7 136 90 148 132 68 90 38 42 31 62 32 48 64 59 48 43 15 71 37 44 4 102 131 99 104 112 80 29 29 228 272 230
342 341 341 342 341 345 354 360 357 6 8 58 33 151 105 80 251 156 354 57 109 132 13 38 86 60 71 82 47 36 352 32 2 17 55 5 132 132 159 318 270 31 41 47 38 307 248
337 336 335 337 338 338 352 0 358 4 19 49 26 102 276 7 53 108 57 90 100 130 65 55 86 93 55 28 321 320 286 76 17 272 137 130 154 157 205 352 295 216 37 45 337 308 305
337 334 333 334 332 333 346 359 359 1 14 33 1 205 74 54 79 52 103 93 81 40 112 50 37 57 26 331 119 114 73 87 69 50 323 149 119 56 112 287 239 71 8 66 54 314 269
332 330 328 329 327 328 338 353 357 356 3 25 355 248 124 102 85 72 71 90 75 49 68 67 42 6 320 36 336 186 157 184 84 36 22 315 130 100 208 206 315 159 69 337 10 319 327
327 324 324 325 321 322 326 345 353 352 359 8 13 28 62 122 42 10 75 41 92 68 86 47 26 352 59 69 62 34 231 359 198 146 58 66 64 228 147 211 239 83 344 344 277 285 26
323 321 316 320 315 314 313 337 348 348 354 358 6 22 82 94 45 280 78 81 109 91 80 325 344 8 352 73 84 204 196 227 223 212 181 104 51 168 151 236 281 268 314 295 231 30 310
316 315 312 315 306 306 302 320 344 351 350 359 1 29 94 90 56 29 47 110 123 63 34 83 218 126 75 95 220 154 235 136 250 240 233 215 166 152 138 211 248 10 293 284 7 298 292
312 309 307 307 299 294 286 308 337 355 354 3 9 54 72 83 94 84 71 54 35 14 153 162 26 139 141 107 164 137 182 179 230 215 210 225 299 168 228 93 349 312 300 320 318 295 209